STARLINK-32142, 60291

Orbit data source: Space-Track

STARLINK-32142, 60291 is a payload satellite owned by SpaceX/Seattle (US) in LEO that was launched on Sun, 28 Jul 2024 UTC via an FALCON 9 launch vehicle from the Air Force Eastern Test Range (AFETR). Payload-class satellites include a variety of spacecraft equipped with specific instruments for various scientific and technological missions. These include communications satellites like Starlink; space stations such as the ISS; scientific satellites like the Hubble; Earth observation satellites from companies like Planet Labs, Umbra, and HawkEye 360; GPS; miniature CubeSats for education and research; and military/defense satellites.

Loading next visibility...
Identifier
60291, 2024-132P
Orbit
LEO
Country
Flag of USUS
Related business
Manufacturer
SpaceX/Seattle
Mission
Operational spacecraft
Bus & Motor
STARLINK V2M, Unknown motor
Mass
730 kg wet, ~700 kg dry
Launch date (UTC)
2024-07-28 (1 year ago)
Launch vehicle
FALCON 9
Launch site
Air Force Eastern Test Range (AFETR)
Object type
Payload
Rocket body
Debris
Shape & HBR
Unknown
Radar Cross Section
Large (>1 m²)

Expand to show TLE details & history
Last TLE update: 23 hours ago

TLE from 23 hours ago
0 STARLINK-32142
1 60291U 24132P   25260.07925892 -.00000957  00000-0 -20196-4 0  9992
2 60291  53.1597 138.5610 0001305  56.9702 303.1424 15.30180878 64987
Epoch: 2025-09-17T01:54Z
TLE epoch observation values (Epoch: 2025-09-17T01:54:07.97Z)
Latitude
-0.00003°
Longitude
113.76741°
Altitude
475.683 km
Speed
7.629 km/s
True Right ascension
09h 14m 14s
True Declination
0° 00' 00"
Sunlit
Object was in daylight at epoch
Visualization orbit readout
Latitude
Unknown
Longitude
Unknown
Altitude
Unknown
Speed
Unknown
Apparent Right ascension
Unknown
Apparent Declination
Unknown
Sunlit
N/A
Visualization observer readout
Local Sidereal Time
18:12:15
Azimuth
Unknown
Elevation
Unknown
Doppler factor
Unknown
Orbital elements
Apogee altitude
476.423 km
Perigee altitude
474.634 km
Semi-major axis
6,853.666 km
Eccentricity
0.00013
Inclination
53.1597°
RAAN
138.561°
Arg. of periapsis
56.9702°
True anomaly
303.12988°
Mean anomaly
303.1424°
Eccentric anomaly
303.13614°
Mean motion
3.82524 °/min
Orbital period
94.11 mins
BSTAR
-0.000020196
Loading maneuver chart data...
Computing Atmospheric mass density...
Loading historical data...
Loading historical data...
Loading historical data...
Loading historical data...
Loading historical data...
Loading historical data...
Loading historical data...

Documentation

Showing up to 5 results
|